Time,TemperatureF,DewpointF,PressureIn,WindDirection,WindDirectionDegrees,WindSpeedMPH,WindSpeedGustMPH,Humidity,HourlyPrecipIn,Conditions,Clouds,dailyrainin,SoftwareType,DateUTC
2013-03-20 00:23:00,33.5,30.0,30.34,East,82,3.6,4.2,94,0.00,,,0.00,TxWx,2013-03-20 04:23:00,
2013-03-20 00:28:00,33.5,32.0,30.34,East,82,3.0,3.3,94,0.00,,,0.00,TxWx,2013-03-20 04:28:00,
2013-03-20 00:33:00,33.6,32.0,30.35,East,82,9.6,9.6,94,0.00,,,0.00,TxWx,2013-03-20 04:33:00,
2013-03-20 00:38:00,33.6,32.0,30.35,East,82,8.1,8.1,93,0.00,,,0.00,TxWx,2013-03-20 04:38:00,
2013-03-20 00:43:00,33.6,31.0,30.35,East,82,11.4,11.4,92,0.00,,,0.00,TxWx,2013-03-20 04:43:00,
2013-03-20 00:49:00,33.5,31.0,30.36,East,82,6.3,6.6,91,0.00,,,0.00,TxWx,2013-03-20 04:49:00,
2013-03-20 00:54:00,33.7,30.0,30.36,East,82,10.5,10.5,88,0.00,,,0.00,TxWx,2013-03-20 04:54:00,
2013-03-20 00:59:00,33.8,29.0,30.36,East,81,3.9,3.9,85,0.00,,,0.00,TxWx,2013-03-20 04:59:00,
2013-03-20 01:04:00,33.6,28.0,30.36,East,82,7.5,7.5,82,0.00,,,0.00,TxWx,2013-03-20 05:04:00,
2013-03-20 01:09:00,33.4,27.0,30.37,East,82,8.1,8.1,81,0.00,,,0.00,TxWx,2013-03-20 05:09:00,
2013-03-20 01:14:00,33.5,26.0,30.38,East,81,7.2,11.7,76,0.00,,,0.00,TxWx,2013-03-20 05:14:00,
2013-03-20 01:19:00,33.3,25.0,30.38,East,82,9.9,9.9,76,0.00,,,0.00,TxWx,2013-03-20 05:19:00,
2013-03-20 01:24:00,33.1,25.0,30.38,East,82,12.9,14.1,76,0.00,,,0.00,TxWx,2013-03-20 05:24:00,
2013-03-20 01:30:00,33.0,25.0,30.38,East,82,9.6,9.9,77,0.00,,,0.00,TxWx,2013-03-20 05:30:00,
2013-03-20 01:35:00,32.9,26.0,30.38,East,82,3.9,3.9,77,0.00,,,0.00,TxWx,2013-03-20 05:35:00,
2013-03-20 01:40:00,32.7,26.0,30.39,East,81,3.9,3.9,78,0.00,,,0.00,TxWx,2013-03-20 05:40:00,
2013-03-20 01:45:00,32.8,26.0,30.39,East,82,5.7,5.7,79,0.00,,,0.00,TxWx,2013-03-20 05:45:00,
2013-03-20 01:50:00,32.8,26.0,30.40,East,82,9.6,11.4,79,0.00,,,0.00,TxWx,2013-03-20 05:50:00,
2013-03-20 01:55:00,32.8,26.0,30.40,East,82,8.4,8.4,78,0.00,,,0.00,TxWx,2013-03-20 05:55:00,
2013-03-20 02:01:00,32.7,26.0,30.40,East,82,6.6,7.8,77,0.00,,,0.00,TxWx,2013-03-20 06:01:00,
2013-03-20 02:06:00,32.7,25.0,30.40,East,82,8.1,8.7,76,0.00,,,0.00,TxWx,2013-03-20 06:06:00,
2013-03-20 02:11:00,32.5,25.0,30.40,East,81,10.5,10.5,75,0.00,,,0.00,TxWx,2013-03-20 06:11:00,
2013-03-20 02:16:00,32.4,24.0,30.40,East,82,11.4,12.0,75,0.00,,,0.00,TxWx,2013-03-20 06:16:00,
2013-03-20 02:21:00,32.3,24.0,30.40,East,82,6.6,6.6,75,0.00,,,0.00,TxWx,2013-03-20 06:21:00,
2013-03-20 02:27:00,32.2,24.0,30.40,East,82,13.8,13.8,75,0.00,,,0.00,TxWx,2013-03-20 06:27:00,
2013-03-20 02:32:00,32.1,24.0,30.40,East,82,3.9,3.9,75,0.00,,,0.00,TxWx,2013-03-20 06:32:00,
2013-03-20 02:37:00,31.9,24.0,30.40,East,82,7.5,8.1,75,0.00,,,0.00,TxWx,2013-03-20 06:37:00,
2013-03-20 02:42:00,31.7,24.0,30.41,East,82,4.8,5.4,74,0.00,,,0.00,TxWx,2013-03-20 06:42:00,
2013-03-20 02:47:00,31.7,23.0,30.41,East,82,2.1,2.1,73,0.00,,,0.00,TxWx,2013-03-20 06:47:00,
2013-03-20 02:52:00,31.5,23.0,30.40,East,82,12.3,12.3,72,0.00,,,0.00,TxWx,2013-03-20 06:52:00,
2013-03-20 02:58:00,31.4,22.0,30.40,East,81,9.3,9.3,72,0.00,,,0.00,TxWx,2013-03-20 06:58:00,
2013-03-20 03:03:00,31.4,22.0,30.41,East,82,4.8,4.8,72,0.00,,,0.00,TxWx,2013-03-20 07:03:00,
2013-03-20 03:08:00,31.3,22.0,30.41,East,82,5.7,6.9,72,0.00,,,0.00,TxWx,2013-03-20 07:08:00,
2013-03-20 03:13:00,31.2,22.0,30.41,East,81,3.0,3.3,72,0.00,,,0.00,TxWx,2013-03-20 07:13:00,
2013-03-20 03:18:00,31.1,22.0,30.41,East,82,6.0,6.0,72,0.00,,,0.00,TxWx,2013-03-20 07:18:00,
2013-03-20 03:23:00,31.1,22.0,30.41,East,82,7.2,7.5,72,0.00,,,0.00,TxWx,2013-03-20 07:23:00,
2013-03-20 03:28:00,31.0,22.0,30.41,East,81,3.6,3.9,73,0.00,,,0.00,TxWx,2013-03-20 07:28:00,
2013-03-20 03:33:00,30.9,22.0,30.41,East,82,3.9,4.2,73,0.00,,,0.00,TxWx,2013-03-20 07:33:00,
2013-03-20 03:38:00,30.8,23.0,30.41,East,81,2.1,2.1,74,0.00,,,0.00,TxWx,2013-03-20 07:38:00,
2013-03-20 03:44:00,30.7,23.0,30.41,East,82,4.5,4.8,74,0.00,,,0.00,TxWx,2013-03-20 07:44:00,
2013-03-20 03:49:00,30.6,23.0,30.41,East,81,7.8,8.1,74,0.00,,,0.00,TxWx,2013-03-20 07:49:00,
2013-03-20 03:54:00,30.6,23.0,30.41,East,81,6.9,6.9,74,0.00,,,0.00,TxWx,2013-03-20 07:54:00,
2013-03-20 03:59:00,30.6,23.0,30.41,East,81,7.8,7.8,74,0.00,,,0.00,TxWx,2013-03-20 07:59:00,
2013-03-20 04:04:00,30.7,23.0,30.41,East,82,2.7,2.7,74,0.00,,,0.00,TxWx,2013-03-20 08:04:00,
2013-03-20 04:09:00,30.6,22.0,30.41,East,82,5.4,7.2,73,0.00,,,0.00,TxWx,2013-03-20 08:09:00,
2013-03-20 04:14:00,30.6,22.0,30.42,East,82,4.2,4.8,73,0.00,,,0.00,TxWx,2013-03-20 08:14:00,
2013-03-20 04:19:00,30.6,22.0,30.42,East,81,6.6,7.2,73,0.00,,,0.00,TxWx,2013-03-20 08:19:00,
2013-03-20 04:24:00,30.6,22.0,30.42,East,81,9.9,9.9,72,0.00,,,0.00,TxWx,2013-03-20 08:24:00,
2013-03-20 04:30:00,30.5,22.0,30.41,East,82,3.3,3.3,72,0.00,,,0.00,TxWx,2013-03-20 08:30:00,
2013-03-20 04:35:00,30.4,21.0,30.42,East,82,9.0,10.5,72,0.00,,,0.00,TxWx,2013-03-20 08:35:00,
2013-03-20 04:40:00,30.3,21.0,30.42,East,82,7.8,7.8,72,0.00,,,0.00,TxWx,2013-03-20 08:40:00,
2013-03-20 04:45:00,30.3,21.0,30.42,East,82,4.5,4.8,72,0.00,,,0.00,TxWx,2013-03-20 08:45:00,
2013-03-20 04:50:00,30.2,21.0,30.42,East,81,1.8,2.1,73,0.00,,,0.00,TxWx,2013-03-20 08:50:00,
2013-03-20 04:55:00,30.1,21.0,30.42,East,82,3.3,3.6,73,0.00,,,0.00,TxWx,2013-03-20 08:55:00,
2013-03-20 05:00:00,30.0,22.0,30.42,East,82,3.3,3.6,74,0.00,,,0.00,TxWx,2013-03-20 09:00:00,
2013-03-20 05:06:00,29.9,22.0,30.42,East,81,6.0,6.0,74,0.00,,,0.00,TxWx,2013-03-20 09:06:00,
2013-03-20 05:11:00,29.9,22.0,30.42,East,81,2.4,2.7,75,0.00,,,0.00,TxWx,2013-03-20 09:11:00,
2013-03-20 05:16:00,29.8,22.0,30.42,East,81,5.4,5.4,75,0.00,,,0.00,TxWx,2013-03-20 09:16:00,
2013-03-20 05:21:00,29.7,22.0,30.43,East,82,4.5,5.1,76,0.00,,,0.00,TxWx,2013-03-20 09:21:00,
2013-03-20 05:26:00,29.5,21.0,30.43,East,81,3.0,3.3,76,0.00,,,0.00,TxWx,2013-03-20 09:26:00,
2013-03-20 05:31:00,29.5,22.0,30.43,East,81,3.3,3.9,77,0.00,,,0.00,TxWx,2013-03-20 09:31:00,
2013-03-20 05:36:00,29.4,22.0,30.43,East,81,5.1,5.4,78,0.00,,,0.00,TxWx,2013-03-20 09:36:00,
2013-03-20 05:41:00,29.3,22.0,30.43,East,82,2.4,3.0,78,0.00,,,0.00,TxWx,2013-03-20 09:41:00,
2013-03-20 05:47:00,29.4,22.0,30.43,East,81,2.4,2.7,79,0.00,,,0.00,TxWx,2013-03-20 09:47:00,
2013-03-20 05:52:00,29.4,22.0,30.43,East,82,6.3,6.3,79,0.00,,,0.00,TxWx,2013-03-20 09:52:00,
2013-03-20 05:57:00,29.4,22.0,30.43,East,81,0.9,0.9,79,0.00,,,0.00,TxWx,2013-03-20 09:57:00,
2013-03-20 06:02:00,29.4,22.0,30.44,East,81,4.2,4.2,79,0.00,,,0.00,TxWx,2013-03-20 10:02:00,
2013-03-20 06:07:00,29.6,23.0,30.44,East,81,3.9,4.5,78,0.00,,,0.00,TxWx,2013-03-20 10:07:00,
2013-03-20 06:12:00,29.6,23.0,30.44,East,81,6.3,6.3,78,0.00,,,0.00,TxWx,2013-03-20 10:12:00,
2013-03-20 06:18:00,29.6,23.0,30.44,East,82,6.6,7.2,77,0.00,,,0.00,TxWx,2013-03-20 10:18:00,
2013-03-20 06:23:00,29.7,22.0,30.44,East,82,5.1,6.0,76,0.00,,,0.00,TxWx,2013-03-20 10:23:00,
2013-03-20 06:28:00,29.8,22.0,30.44,East,82,4.8,4.8,75,0.00,,,0.00,TxWx,2013-03-20 10:28:00,
2013-03-20 06:33:00,29.7,22.0,30.44,East,82,5.1,5.1,74,0.00,,,0.00,TxWx,2013-03-20 10:33:00,
2013-03-20 06:38:00,29.8,21.0,30.44,East,82,11.1,11.1,73,0.00,,,0.00,TxWx,2013-03-20 10:38:00,
2013-03-20 06:43:00,29.7,21.0,30.44,East,82,11.4,12.9,73,0.00,,,0.00,TxWx,2013-03-20 10:43:00,
2013-03-20 06:48:00,29.7,21.0,30.44,East,81,5.4,6.0,72,0.00,,,0.00,TxWx,2013-03-20 10:48:00,
2013-03-20 06:54:00,29.7,21.0,30.44,East,81,6.0,6.3,71,0.00,,,0.00,TxWx,2013-03-20 10:54:00,
2013-03-20 06:59:00,29.7,21.0,30.44,East,82,9.0,9.0,71,0.00,,,0.00,TxWx,2013-03-20 10:59:00,
2013-03-20 07:04:00,29.8,20.0,30.45,East,81,4.2,4.2,70,0.00,,,0.00,TxWx,2013-03-20 11:04:00,
2013-03-20 07:09:00,29.8,20.0,30.45,East,81,9.6,9.6,70,0.00,,,0.00,TxWx,2013-03-20 11:09:00,
2013-03-20 07:14:00,29.9,20.0,30.45,East,81,4.2,4.2,69,0.00,,,0.00,TxWx,2013-03-20 11:14:00,
2013-03-20 07:19:00,30.0,20.0,30.45,East,82,4.2,5.4,69,0.00,,,0.00,TxWx,2013-03-20 11:19:00,
2013-03-20 07:25:00,30.1,20.0,30.45,East,82,9.0,9.0,68,0.00,,,0.00,TxWx,2013-03-20 11:25:00,
2013-03-20 07:30:00,30.4,20.0,30.45,East,81,8.1,8.1,68,0.00,,,0.00,TxWx,2013-03-20 11:30:00,
2013-03-20 07:35:00,30.4,19.0,30.44,East,82,13.5,13.8,67,0.00,,,0.00,TxWx,2013-03-20 11:35:00,
2013-03-20 07:40:00,30.4,19.0,30.44,East,82,7.8,8.1,66,0.00,,,0.00,TxWx,2013-03-20 11:40:00,
2013-03-20 07:45:00,30.6,20.0,30.44,East,82,7.5,7.5,66,0.00,,,0.00,TxWx,2013-03-20 11:45:00,
2013-03-20 07:51:00,30.7,20.0,30.44,East,81,8.7,8.7,65,0.00,,,0.00,TxWx,2013-03-20 11:51:00,
2013-03-20 07:56:00,30.9,20.0,30.45,East,82,7.2,7.5,66,0.00,,,0.00,TxWx,2013-03-20 11:56:00,
2013-03-20 08:01:00,30.8,20.0,30.45,East,82,7.8,8.1,65,0.00,,,0.00,TxWx,2013-03-20 12:01:00,
2013-03-20 08:07:00,31.1,19.0,30.45,East,82,9.0,10.8,64,0.00,,,0.00,TxWx,2013-03-20 12:07:00,
2013-03-20 08:12:00,31.4,19.0,30.45,East,81,5.4,5.7,64,0.00,,,0.00,TxWx,2013-03-20 12:12:00,
2013-03-20 08:17:00,31.2,19.0,30.45,East,82,17.7,18.9,63,0.00,,,0.00,TxWx,2013-03-20 12:17:00,
2013-03-20 08:22:00,31.5,20.0,30.44,East,82,6.0,6.9,63,0.00,,,0.00,TxWx,2013-03-20 12:22:00,
2013-03-20 08:27:00,31.6,20.0,30.45,East,82,6.3,6.3,63,0.00,,,0.00,TxWx,2013-03-20 12:27:00,
2013-03-20 08:32:00,31.9,20.0,30.44,East,82,5.1,5.1,63,0.00,,,0.00,TxWx,2013-03-20 12:32:00,
2013-03-20 08:38:00,32.0,19.0,30.44,East,82,6.3,7.5,62,0.00,,,0.00,TxWx,2013-03-20 12:38:00,
2013-03-20 08:43:00,32.0,19.0,30.44,East,82,16.8,20.7,61,0.00,,,0.00,TxWx,2013-03-20 12:43:00,
2013-03-20 08:48:00,32.2,19.0,30.44,East,82,10.2,10.2,62,0.00,,,0.00,TxWx,2013-03-20 12:48:00,
2013-03-20 08:53:00,32.3,19.0,30.44,East,82,6.6,6.6,60,0.00,,,0.00,TxWx,2013-03-20 12:53:00,
2013-03-20 08:58:00,32.5,20.0,30.44,East,82,6.0,6.0,60,0.00,,,0.00,TxWx,2013-03-20 12:58:00,
2013-03-20 09:04:00,32.6,19.0,30.44,East,82,7.5,7.5,59,0.00,,,0.00,TxWx,2013-03-20 13:04:00,
2013-03-20 09:09:00,33.2,19.0,30.44,East,82,7.2,7.2,60,0.00,,,0.00,TxWx,2013-03-20 13:09:00,
2013-03-20 09:14:00,33.2,18.0,30.44,East,82,3.9,4.8,57,0.00,,,0.00,TxWx,2013-03-20 13:14:00,
2013-03-20 09:19:00,33.0,18.0,30.44,East,82,7.2,9.3,57,0.00,,,0.00,TxWx,2013-03-20 13:19:00,
2013-03-20 09:24:00,33.5,20.0,30.44,East,82,9.9,12.6,58,0.00,,,0.00,TxWx,2013-03-20 13:24:00,
2013-03-20 09:29:00,33.4,18.0,30.44,East,82,10.5,11.7,57,0.00,,,0.00,TxWx,2013-03-20 13:29:00,
2013-03-20 09:35:00,33.6,19.0,30.43,East,82,16.5,16.5,56,0.00,,,0.00,TxWx,2013-03-20 13:35:00,
2013-03-20 09:40:00,33.5,18.0,30.44,East,81,8.1,9.0,56,0.00,,,0.00,TxWx,2013-03-20 13:40:00,
2013-03-20 09:45:00,33.7,19.0,30.44,East,82,6.0,6.9,56,0.00,,,0.00,TxWx,2013-03-20 13:45:00,
2013-03-20 09:50:00,33.9,19.0,30.43,East,82,13.5,14.1,55,0.00,,,0.00,TxWx,2013-03-20 13:50:00,
2013-03-20 09:55:00,33.7,18.0,30.43,East,82,10.5,16.2,54,0.00,,,0.00,TxWx,2013-03-20 13:55:00,
2013-03-20 10:01:00,33.9,19.0,30.43,East,82,8.7,9.9,55,0.00,,,0.00,TxWx,2013-03-20 14:01:00,
2013-03-20 10:06:00,34.1,18.0,30.43,East,82,11.7,11.7,53,0.00,,,0.00,TxWx,2013-03-20 14:06:00,
2013-03-20 10:11:00,34.4,18.0,30.43,East,82,17.4,17.4,54,0.00,,,0.00,TxWx,2013-03-20 14:11:00,
2013-03-20 10:17:00,34.5,18.0,30.43,East,82,9.9,9.9,54,0.00,,,0.00,TxWx,2013-03-20 14:17:00,
2013-03-20 10:22:00,34.6,19.0,30.43,East,82,15.0,15.0,54,0.00,,,0.00,TxWx,2013-03-20 14:22:00,
2013-03-20 10:27:00,34.7,18.0,30.43,East,82,19.5,19.5,52,0.00,,,0.00,TxWx,2013-03-20 14:27:00,
2013-03-20 10:33:00,34.5,17.0,30.43,East,82,10.8,10.8,52,0.00,,,0.00,TxWx,2013-03-20 14:33:00,
2013-03-20 10:38:00,34.1,16.0,30.43,East,82,17.1,19.8,50,0.00,,,0.00,TxWx,2013-03-20 14:38:00,
2013-03-20 10:43:00,34.7,17.0,30.43,East,82,20.4,20.4,49,0.00,,,0.00,TxWx,2013-03-20 14:43:00,
2013-03-20 10:48:00,34.1,15.0,30.43,East,82,15.6,16.8,48,0.00,,,0.00,TxWx,2013-03-20 14:48:00,
2013-03-20 10:53:00,34.8,16.0,30.43,East,82,9.0,11.1,48,0.00,,,0.00,TxWx,2013-03-20 14:53:00,
2013-03-20 10:58:00,34.9,16.0,30.43,East,82,23.7,26.4,48,0.00,,,0.00,TxWx,2013-03-20 14:58:00,
2013-03-20 11:04:00,34.9,15.0,30.43,East,82,19.2,19.2,46,0.00,,,0.00,TxWx,2013-03-20 15:04:00,
2013-03-20 11:09:00,35.0,15.0,30.43,East,82,11.7,12.0,45,0.00,,,0.00,TxWx,2013-03-20 15:09:00,
2013-03-20 11:14:00,35.3,15.0,30.44,East,82,12.9,12.9,46,0.00,,,0.00,TxWx,2013-03-20 15:14:00,
2013-03-20 11:19:00,36.1,17.0,30.44,East,82,5.1,5.1,47,0.00,,,0.00,TxWx,2013-03-20 15:19:00,
2013-03-20 11:24:00,35.6,16.0,30.43,East,82,6.0,8.7,46,0.00,,,0.00,TxWx,2013-03-20 15:24:00,
2013-03-20 11:30:00,35.9,16.0,30.44,East,82,11.4,12.3,47,0.00,,,0.00,TxWx,2013-03-20 15:30:00,
2013-03-20 11:35:00,36.2,16.0,30.44,East,82,11.7,11.7,46,0.00,,,0.00,TxWx,2013-03-20 15:35:00,
2013-03-20 11:40:00,36.7,17.0,30.44,East,82,5.1,7.8,46,0.00,,,0.00,TxWx,2013-03-20 15:40:00,
2013-03-20 11:45:00,36.8,17.0,30.44,East,82,12.6,13.5,46,0.00,,,0.00,TxWx,2013-03-20 15:45:00,
2013-03-20 11:50:00,36.0,16.0,30.44,East,82,17.4,18.3,46,0.00,,,0.00,TxWx,2013-03-20 15:50:00,
2013-03-20 11:55:00,36.2,17.0,30.44,East,82,9.9,13.8,48,0.00,,,0.00,TxWx,2013-03-20 15:55:00,
2013-03-20 12:01:00,36.0,17.0,30.43,East,82,6.0,10.8,48,0.00,,,0.00,TxWx,2013-03-20 16:01:00,
2013-03-20 12:06:00,36.1,17.0,30.43,East,82,7.8,7.8,48,0.00,,,0.00,TxWx,2013-03-20 16:06:00,
2013-03-20 12:11:00,35.7,16.0,30.43,East,82,19.8,25.2,45,0.00,,,0.00,TxWx,2013-03-20 16:11:00,
2013-03-20 12:16:00,37.1,18.0,30.43,East,82,6.0,6.0,48,0.00,,,0.00,TxWx,2013-03-20 16:16:00,
2013-03-20 12:21:00,36.4,16.0,30.43,East,82,16.5,16.5,45,0.00,,,0.00,TxWx,2013-03-20 16:21:00,
2013-03-20 12:26:00,36.8,17.0,30.43,East,82,15.3,15.3,47,0.00,,,0.00,TxWx,2013-03-20 16:26:00,
2013-03-20 12:32:00,36.3,16.0,30.43,East,82,11.4,13.2,45,0.00,,,0.00,TxWx,2013-03-20 16:32:00,
2013-03-20 12:37:00,37.2,17.0,30.43,East,82,12.3,12.9,46,0.00,,,0.00,TxWx,2013-03-20 16:37:00,
2013-03-20 12:42:00,37.0,17.0,30.43,East,82,12.0,12.3,45,0.00,,,0.00,TxWx,2013-03-20 16:42:00,
2013-03-20 12:47:00,37.2,17.0,30.43,East,82,11.1,14.1,46,0.00,,,0.00,TxWx,2013-03-20 16:47:00,
2013-03-20 12:52:00,37.4,16.0,30.43,East,82,12.0,13.5,45,0.00,,,0.00,TxWx,2013-03-20 16:52:00,
2013-03-20 12:57:00,37.0,17.0,30.43,East,82,11.1,15.6,46,0.00,,,0.00,TxWx,2013-03-20 16:57:00,
2013-03-20 13:02:00,37.4,17.0,30.43,East,82,11.1,11.1,47,0.00,,,0.00,TxWx,2013-03-20 17:02:00,
2013-03-20 13:07:00,37.4,17.0,30.42,East,82,8.1,10.8,46,0.00,,,0.00,TxWx,2013-03-20 17:07:00,
2013-03-20 13:13:00,37.9,18.0,30.42,East,82,4.2,5.7,45,0.00,,,0.00,TxWx,2013-03-20 17:13:00,
2013-03-20 13:18:00,37.4,16.0,30.42,East,82,11.4,14.7,44,0.00,,,0.00,TxWx,2013-03-20 17:18:00,
2013-03-20 13:23:00,37.9,17.0,30.42,East,82,13.2,14.1,45,0.00,,,0.00,TxWx,2013-03-20 17:23:00,
2013-03-20 13:29:00,37.8,18.0,30.41,East,82,12.0,12.0,45,0.00,,,0.00,TxWx,2013-03-20 17:29:00,
2013-03-20 13:34:00,37.9,17.0,30.42,East,81,3.9,4.8,44,0.00,,,0.00,TxWx,2013-03-20 17:34:00,
2013-03-20 13:39:00,38.1,17.0,30.41,East,82,10.5,10.5,44,0.00,,,0.00,TxWx,2013-03-20 17:39:00,
2013-03-20 13:44:00,38.5,17.0,30.41,East,82,12.0,12.6,45,0.00,,,0.00,TxWx,2013-03-20 17:44:00,
2013-03-20 13:49:00,38.5,17.0,30.41,East,82,13.5,14.4,44,0.00,,,0.00,TxWx,2013-03-20 17:49:00,
2013-03-20 13:54:00,37.9,17.0,30.41,East,82,8.1,8.1,45,0.00,,,0.00,TxWx,2013-03-20 17:54:00,
2013-03-20 14:00:00,38.1,17.0,30.41,East,82,11.1,14.4,44,0.00,,,0.00,TxWx,2013-03-20 18:00:00,
2013-03-20 14:05:00,38.5,18.0,30.41,East,82,7.5,7.8,44,0.00,,,0.00,TxWx,2013-03-20 18:05:00,
2013-03-20 14:10:00,37.9,16.0,30.40,East,82,14.7,14.7,42,0.00,,,0.00,TxWx,2013-03-20 18:10:00,
2013-03-20 14:15:00,38.3,16.0,30.40,East,82,15.0,15.0,43,0.00,,,0.00,TxWx,2013-03-20 18:15:00,
2013-03-20 14:20:00,38.2,16.0,30.40,East,82,17.1,18.6,42,0.00,,,0.00,TxWx,2013-03-20 18:20:00,
2013-03-20 14:25:00,39.1,17.0,30.40,East,82,6.9,6.9,43,0.00,,,0.00,TxWx,2013-03-20 18:25:00,
2013-03-20 14:30:00,38.7,16.0,30.40,East,82,10.8,10.8,41,0.00,,,0.00,TxWx,2013-03-20 18:30:00,
2013-03-20 14:36:00,39.2,16.0,30.40,East,82,10.5,13.8,41,0.00,,,0.00,TxWx,2013-03-20 18:36:00,
2013-03-20 14:41:00,39.0,16.0,30.40,East,82,9.3,9.3,41,0.00,,,0.00,TxWx,2013-03-20 18:41:00,
2013-03-20 14:46:00,39.3,15.0,30.40,East,82,13.8,18.9,40,0.00,,,0.00,TxWx,2013-03-20 18:46:00,
2013-03-20 14:51:00,39.6,17.0,30.40,East,82,9.6,9.6,41,0.00,,,0.00,TxWx,2013-03-20 18:51:00,
2013-03-20 14:57:00,39.8,17.0,30.40,East,82,9.6,11.7,41,0.00,,,0.00,TxWx,2013-03-20 18:57:00,
2013-03-20 15:02:00,39.8,17.0,30.39,East,82,11.7,11.7,42,0.00,,,0.00,TxWx,2013-03-20 19:02:00,
2013-03-20 15:07:00,39.7,17.0,30.39,East,82,9.3,10.5,40,0.00,,,0.00,TxWx,2013-03-20 19:07:00,
2013-03-20 15:12:00,40.0,17.0,30.39,East,82,4.2,4.8,40,0.00,,,0.00,TxWx,2013-03-20 19:12:00,
2013-03-20 15:17:00,40.0,16.0,30.39,East,82,7.8,7.8,39,0.00,,,0.00,TxWx,2013-03-20 19:17:00,
2013-03-20 15:22:00,40.7,17.0,30.39,East,82,6.9,8.7,40,0.00,,,0.00,TxWx,2013-03-20 19:22:00,
2013-03-20 15:27:00,41.1,17.0,30.39,East,82,11.1,11.1,39,0.00,,,0.00,TxWx,2013-03-20 19:27:00,
2013-03-20 15:32:00,41.1,17.0,30.39,East,82,3.0,3.9,40,0.00,,,0.00,TxWx,2013-03-20 19:32:00,
2013-03-20 15:38:00,40.2,16.0,30.39,East,82,6.6,9.6,39,0.00,,,0.00,TxWx,2013-03-20 19:38:00,
2013-03-20 15:43:00,39.9,16.0,30.38,East,82,12.0,12.3,39,0.00,,,0.00,TxWx,2013-03-20 19:43:00,
2013-03-20 15:48:00,40.1,16.0,30.38,East,82,9.9,10.2,39,0.00,,,0.00,TxWx,2013-03-20 19:48:00,
2013-03-20 15:53:00,40.0,16.0,30.38,East,82,9.9,12.0,39,0.00,,,0.00,TxWx,2013-03-20 19:53:00,
2013-03-20 15:58:00,40.0,16.0,30.38,East,82,8.7,11.1,39,0.00,,,0.00,TxWx,2013-03-20 19:58:00,
2013-03-20 16:02:00,29.1,22.0,30.45,East,83,0.0,0.0,77,0.00,,,0.00,TxWx,2013-03-20 20:02:00,
2013-03-20 16:03:00,29.1,22.0,30.45,East,83,0.0,0.0,77,0.00,,,0.00,TxWx,2013-03-20 20:03:00,
2013-03-20 16:04:00,40.3,15.0,30.38,East,82,10.5,11.7,38,0.00,,,0.00,TxWx,2013-03-20 20:04:00,
2013-03-20 16:05:00,29.1,22.0,30.45,East,82,0.6,0.6,77,0.00,,,0.00,TxWx,2013-03-20 20:05:00,
2013-03-20 16:06:00,29.1,22.0,30.45,NE,45,0.9,0.9,77,0.00,,,0.00,TxWx,2013-03-20 20:06:00,
2013-03-20 16:07:00,29.2,22.0,30.45,East,82,1.5,1.8,77,0.00,,,0.00,TxWx,2013-03-20 20:07:00,
2013-03-20 16:08:00,40.3,14.0,30.38,East,82,15.0,15.9,36,0.00,,,0.00,TxWx,2013-03-20 20:08:00,
2013-03-20 16:09:00,29.2,21.0,30.45,East,83,1.5,1.8,76,0.00,,,0.00,TxWx,2013-03-20 20:09:00,
2013-03-20 16:10:00,29.2,22.0,30.45,East,83,2.1,2.1,77,0.00,,,0.00,TxWx,2013-03-20 20:10:00,
2013-03-20 16:11:00,29.2,21.0,30.45,East,82,0.6,0.9,76,0.00,,,0.00,TxWx,2013-03-20 20:11:00,
2013-03-20 16:12:00,29.3,21.0,30.45,East,81,1.2,1.2,76,0.00,,,0.00,TxWx,2013-03-20 20:12:00,
2013-03-20 16:13:00,29.4,21.0,30.45,East,83,1.2,1.2,76,0.00,,,0.00,TxWx,2013-03-20 20:13:00,
2013-03-20 16:14:00,40.8,17.0,30.38,East,82,8.1,8.1,39,0.00,,,0.00,TxWx,2013-03-20 20:14:00,
2013-03-20 16:15:00,29.4,21.0,30.45,East,82,0.0,0.3,76,0.00,,,0.00,TxWx,2013-03-20 20:15:00,
2013-03-20 16:16:00,29.4,21.0,30.45,East,82,0.0,0.0,76,0.00,,,0.00,TxWx,2013-03-20 20:16:00,
2013-03-20 16:17:00,29.4,21.0,30.45,East,82,0.0,0.0,76,0.00,,,0.00,TxWx,2013-03-20 20:17:00,
2013-03-20 16:18:00,29.4,21.0,30.45,East,82,0.0,0.0,76,0.00,,,0.00,TxWx,2013-03-20 20:18:00,
2013-03-20 16:19:00,40.5,16.0,30.38,East,82,9.3,9.3,38,0.00,,,0.00,TxWx,2013-03-20 20:19:00,
2013-03-20 16:20:00,29.5,22.0,30.45,East,83,0.0,0.0,76,0.00,,,0.00,TxWx,2013-03-20 20:20:00,
2013-03-20 16:21:00,29.5,22.0,30.45,East,82,0.3,0.6,75,0.00,,,0.00,TxWx,2013-03-20 20:21:00,
2013-03-20 16:22:00,29.5,22.0,30.45,East,83,0.0,0.0,75,0.00,,,0.00,TxWx,2013-03-20 20:22:00,
2013-03-20 16:23:00,29.6,22.0,30.45,East,81,0.0,0.0,75,0.00,,,0.00,TxWx,2013-03-20 20:23:00,
2013-03-20 16:24:00,40.9,17.0,30.38,East,82,4.5,5.7,39,0.00,,,0.00,TxWx,2013-03-20 20:24:00,
2013-03-20 16:25:00,29.5,21.0,30.45,East,82,0.9,0.9,75,0.00,,,0.00,TxWx,2013-03-20 20:25:00,
2013-03-20 16:26:00,29.5,22.0,30.45,East,82,0.0,0.0,75,0.00,,,0.00,TxWx,2013-03-20 20:26:00,
2013-03-20 16:27:00,29.5,22.0,30.45,East,81,0.3,0.6,76,0.00,,,0.00,TxWx,2013-03-20 20:27:00,
2013-03-20 16:28:00,29.5,22.0,30.45,East,82,0.0,0.0,76,0.00,,,0.00,TxWx,2013-03-20 20:28:00,
2013-03-20 16:29:00,40.3,14.0,30.38,East,82,9.6,10.5,37,0.00,,,0.00,TxWx,2013-03-20 20:29:00,
2013-03-20 16:30:00,29.5,23.0,30.45,East,83,0.9,0.9,77,0.00,,,0.00,TxWx,2013-03-20 20:30:00,
2013-03-20 16:31:00,29.3,22.0,30.45,East,81,2.7,3.0,77,0.00,,,0.00,TxWx,2013-03-20 20:31:00,
2013-03-20 16:33:00,29.3,22.0,30.45,East,82,2.4,2.4,77,0.00,,,0.00,TxWx,2013-03-20 20:33:00,
2013-03-20 16:34:00,29.1,22.0,30.45,East,82,2.4,2.4,77,0.00,,,0.00,TxWx,2013-03-20 20:34:00,
2013-03-20 16:35:00,40.3,15.0,30.38,East,82,6.9,7.8,38,0.00,,,0.00,TxWx,2013-03-20 20:35:00,
2013-03-20 16:36:00,29.2,22.0,30.45,East,81,0.0,0.0,77,0.00,,,0.00,TxWx,2013-03-20 20:36:00,
2013-03-20 16:38:00,29.3,21.0,30.45,East,82,0.3,0.3,76,0.00,,,0.00,TxWx,2013-03-20 20:38:00,
2013-03-20 16:39:00,29.4,21.0,30.45,East,81,0.0,0.0,76,0.00,,,0.00,TxWx,2013-03-20 20:39:00,
2013-03-20 16:40:00,40.2,15.0,30.38,East,82,10.8,12.0,37,0.00,,,0.00,TxWx,2013-03-20 20:40:00,
2013-03-20 16:41:00,29.3,21.0,30.46,East,83,2.1,2.1,76,0.00,,,0.00,TxWx,2013-03-20 20:41:00,
2013-03-20 16:42:00,29.3,21.0,30.45,East,81,2.1,2.1,76,0.00,,,0.00,TxWx,2013-03-20 20:42:00,
2013-03-20 16:43:00,29.3,21.0,30.45,East,81,2.1,2.1,76,0.00,,,0.00,TxWx,2013-03-20 20:43:00,
2013-03-20 16:44:00,29.6,22.0,30.45,East,82,1.2,1.5,76,0.00,,,0.00,TxWx,2013-03-20 20:44:00,
2013-03-20 16:45:00,40.5,15.0,30.38,East,82,18.9,19.8,37,0.00,,,0.00,TxWx,2013-03-20 20:45:00,
2013-03-20 16:50:00,41.0,16.0,30.39,East,82,9.9,10.8,38,0.00,,,0.00,TxWx,2013-03-20 20:50:00,
2013-03-20 16:55:00,40.7,16.0,30.39,East,82,11.7,13.5,37,0.00,,,0.00,TxWx,2013-03-20 20:55:00,
2013-03-20 17:01:00,40.7,16.0,30.39,East,82,12.9,12.9,38,0.00,,,0.00,TxWx,2013-03-20 21:01:00,
2013-03-20 17:06:00,40.6,16.0,30.39,East,82,8.4,8.4,37,0.00,,,0.00,TxWx,2013-03-20 21:06:00,
2013-03-20 17:11:00,40.5,15.0,30.39,East,82,6.9,6.9,38,0.00,,,0.00,TxWx,2013-03-20 21:11:00,
2013-03-20 17:16:00,40.5,16.0,30.39,East,82,8.7,9.0,39,0.00,,,0.00,TxWx,2013-03-20 21:16:00,
2013-03-20 17:21:00,40.2,15.0,30.40,East,82,9.3,9.3,38,0.00,,,0.00,TxWx,2013-03-20 21:21:00,
2013-03-20 17:27:00,40.0,16.0,30.40,East,82,12.0,12.0,39,0.00,,,0.00,TxWx,2013-03-20 21:27:00,
2013-03-20 17:32:00,40.3,16.0,30.40,East,82,1.8,2.4,40,0.00,,,0.00,TxWx,2013-03-20 21:32:00,
2013-03-20 17:37:00,40.3,15.0,30.40,East,82,11.1,11.7,38,0.00,,,0.00,TxWx,2013-03-20 21:37:00,
2013-03-20 17:42:00,40.4,15.0,30.40,East,82,5.4,5.4,38,0.00,,,0.00,TxWx,2013-03-20 21:42:00,
2013-03-20 17:47:00,40.0,15.0,30.40,East,82,8.7,9.3,38,0.00,,,0.00,TxWx,2013-03-20 21:47:00,
2013-03-20 17:53:00,40.0,16.0,30.40,East,82,3.9,4.5,39,0.00,,,0.00,TxWx,2013-03-20 21:53:00,
2013-03-20 17:58:00,39.9,15.0,30.40,East,82,12.0,12.3,38,0.00,,,0.00,TxWx,2013-03-20 21:58:00,
2013-03-20 18:03:00,40.0,15.0,30.41,East,82,7.5,7.5,38,0.00,,,0.00,TxWx,2013-03-20 22:03:00,
2013-03-20 18:08:00,40.4,16.0,30.41,East,82,4.5,4.5,39,0.00,,,0.00,TxWx,2013-03-20 22:08:00,
2013-03-20 18:13:00,40.1,15.0,30.41,East,82,7.8,8.1,38,0.00,,,0.00,TxWx,2013-03-20 22:13:00,
2013-03-20 18:18:00,39.9,16.0,30.41,East,82,2.1,2.1,39,0.00,,,0.00,TxWx,2013-03-20 22:18:00,
2013-03-20 18:24:00,39.8,15.0,30.41,East,82,2.4,3.6,38,0.00,,,0.00,TxWx,2013-03-20 22:24:00,
2013-03-20 18:29:00,40.1,16.0,30.41,East,82,1.8,1.8,39,0.00,,,0.00,TxWx,2013-03-20 22:29:00,
2013-03-20 18:34:00,40.3,16.0,30.41,East,82,1.2,1.2,39,0.00,,,0.00,TxWx,2013-03-20 22:34:00,
2013-03-20 18:39:00,40.2,16.0,30.42,East,82,0.6,0.9,39,0.00,,,0.00,TxWx,2013-03-20 22:39:00,
2013-03-20 18:44:00,40.3,16.0,30.41,East,82,0.6,0.9,39,0.00,,,0.00,TxWx,2013-03-20 22:44:00,
2013-03-20 18:49:00,40.0,16.0,30.42,East,82,3.6,3.6,39,0.00,,,0.00,TxWx,2013-03-20 22:49:00,
2013-03-20 18:55:00,39.8,16.0,30.42,East,82,2.1,2.1,39,0.00,,,0.00,TxWx,2013-03-20 22:55:00,
2013-03-20 19:00:00,39.7,16.0,30.42,East,82,1.8,1.8,39,0.00,,,0.00,TxWx,2013-03-20 23:00:00,
2013-03-20 19:05:00,39.5,16.0,30.42,East,82,2.7,2.7,39,0.00,,,0.00,TxWx,2013-03-20 23:05:00,
2013-03-20 19:10:00,39.3,15.0,30.42,East,82,0.3,0.3,40,0.00,,,0.00,TxWx,2013-03-20 23:10:00,
2013-03-20 19:15:00,39.1,16.0,30.42,East,82,0.3,0.3,40,0.00,,,0.00,TxWx,2013-03-20 23:15:00,
2013-03-20 19:20:00,38.7,16.0,30.42,East,82,3.9,4.2,41,0.00,,,0.00,TxWx,2013-03-20 23:20:00,
2013-03-20 19:25:00,38.2,17.0,30.42,East,82,0.3,0.3,44,0.00,,,0.00,TxWx,2013-03-20 23:25:00,
2013-03-20 19:30:00,38.0,16.0,30.42,East,82,4.5,4.5,43,0.00,,,0.00,TxWx,2013-03-20 23:30:00,
2013-03-20 19:36:00,38.1,16.0,30.42,East,82,3.0,3.6,43,0.00,,,0.00,TxWx,2013-03-20 23:36:00,
2013-03-20 19:41:00,38.2,16.0,30.42,East,82,1.8,1.8,42,0.00,,,0.00,TxWx,2013-03-20 23:41:00,
2013-03-20 19:46:00,38.2,16.0,30.42,East,82,3.0,3.3,42,0.00,,,0.00,TxWx,2013-03-20 23:46:00,
2013-03-20 19:51:00,38.0,16.0,30.42,East,82,1.8,2.4,42,0.00,,,0.00,TxWx,2013-03-20 23:51:00,
2013-03-20 19:57:00,37.8,16.0,30.42,East,82,3.0,3.0,43,0.00,,,0.00,TxWx,2013-03-20 23:57:00,
2013-03-20 20:02:00,37.7,16.0,30.42,East,82,2.7,2.7,43,0.00,,,0.00,TxWx,2013-03-21 00:02:00,
2013-03-20 20:07:00,37.8,16.0,30.43,East,82,2.4,2.7,43,0.00,,,0.00,TxWx,2013-03-21 00:07:00,
2013-03-20 20:12:00,37.4,15.0,30.43,East,82,2.4,2.7,43,0.00,,,0.00,TxWx,2013-03-21 00:12:00,
2013-03-20 20:17:00,37.6,16.0,30.43,East,82,2.4,2.4,43,0.00,,,0.00,TxWx,2013-03-21 00:17:00,
2013-03-20 20:22:00,37.5,16.0,30.43,East,82,1.2,1.2,43,0.00,,,0.00,TxWx,2013-03-21 00:22:00,
2013-03-20 20:28:00,37.3,16.0,30.43,East,82,0.3,0.3,43,0.00,,,0.00,TxWx,2013-03-21 00:28:00,
2013-03-20 20:33:00,37.2,16.0,30.43,East,81,0.6,0.6,43,0.00,,,0.00,TxWx,2013-03-21 00:33:00,
2013-03-20 20:38:00,37.1,16.0,30.43,East,81,0.9,0.9,43,0.00,,,0.00,TxWx,2013-03-21 00:38:00,
2013-03-20 20:43:00,36.8,16.0,30.43,East,82,0.9,1.2,44,0.00,,,0.00,TxWx,2013-03-21 00:43:00,
2013-03-20 20:48:00,36.2,16.0,30.43,East,81,0.9,1.2,46,0.00,,,0.00,TxWx,2013-03-21 00:48:00,
2013-03-20 20:53:00,35.9,16.0,30.43,East,81,0.6,0.9,46,0.00,,,0.00,TxWx,2013-03-21 00:53:00,
2013-03-20 20:58:00,35.6,17.0,30.43,East,81,0.6,0.9,47,0.00,,,0.00,TxWx,2013-03-21 00:58:00,
2013-03-20 21:03:00,35.3,16.0,30.43,East,82,1.2,1.2,48,0.00,,,0.00,TxWx,2013-03-21 01:03:00,
2013-03-20 21:08:00,35.3,17.0,30.43,East,82,0.0,0.0,49,0.00,,,0.00,TxWx,2013-03-21 01:08:00,
2013-03-20 21:13:00,34.8,18.0,30.43,East,82,0.0,0.0,52,0.00,,,0.00,TxWx,2013-03-21 01:13:00,
2013-03-20 21:18:00,34.0,18.0,30.43,East,82,0.0,0.0,55,0.00,,,0.00,TxWx,2013-03-21 01:18:00,
2013-03-20 21:24:00,33.8,18.0,30.43,East,81,1.5,1.8,54,0.00,,,0.00,TxWx,2013-03-21 01:24:00,
2013-03-20 21:29:00,33.5,18.0,30.44,East,82,0.9,0.9,56,0.00,,,0.00,TxWx,2013-03-21 01:29:00,
2013-03-20 21:34:00,33.7,18.0,30.44,East,82,1.2,1.5,54,0.00,,,0.00,TxWx,2013-03-21 01:34:00,
2013-03-20 21:39:00,33.7,18.0,30.44,East,81,1.2,1.5,53,0.00,,,0.00,TxWx,2013-03-21 01:39:00,
2013-03-20 21:44:00,33.9,18.0,30.44,East,82,2.1,2.1,53,0.00,,,0.00,TxWx,2013-03-21 01:44:00,
2013-03-20 21:49:00,33.3,18.0,30.45,East,82,1.8,1.8,55,0.00,,,0.00,TxWx,2013-03-21 01:49:00,
2013-03-20 21:54:00,32.2,18.0,30.44,East,82,0.0,0.0,58,0.00,,,0.00,TxWx,2013-03-21 01:54:00,
2013-03-20 21:59:00,31.7,18.0,30.45,East,82,0.9,0.9,60,0.00,,,0.00,TxWx,2013-03-21 01:59:00,
2013-03-20 22:04:00,31.7,19.0,30.44,East,82,0.0,0.0,60,0.00,,,0.00,TxWx,2013-03-21 02:04:00,
2013-03-20 22:10:00,31.6,19.0,30.44,East,82,0.9,0.9,61,0.00,,,0.00,TxWx,2013-03-21 02:10:00,
2013-03-20 22:15:00,31.6,19.0,30.45,East,81,0.3,0.6,61,0.00,,,0.00,TxWx,2013-03-21 02:15:00,
2013-03-20 22:20:00,31.4,19.0,30.44,East,82,0.0,0.0,63,0.00,,,0.00,TxWx,2013-03-21 02:20:00,
2013-03-20 22:25:00,31.0,20.0,30.44,East,82,0.0,0.0,66,0.00,,,0.00,TxWx,2013-03-21 02:25:00,
2013-03-20 22:30:00,31.0,19.0,30.44,East,82,0.0,0.0,64,0.00,,,0.00,TxWx,2013-03-21 02:30:00,
2013-03-20 22:35:00,30.7,20.0,30.44,East,82,0.0,0.0,67,0.00,,,0.00,TxWx,2013-03-21 02:35:00,
2013-03-20 22:41:00,30.4,19.0,30.44,East,82,0.0,0.0,67,0.00,,,0.00,TxWx,2013-03-21 02:41:00,
2013-03-20 22:46:00,30.5,20.0,30.44,East,82,0.0,0.0,66,0.00,,,0.00,TxWx,2013-03-21 02:46:00,
2013-03-20 22:51:00,30.6,19.0,30.44,East,82,0.0,0.0,65,0.00,,,0.00,TxWx,2013-03-21 02:51:00,
2013-03-20 22:56:00,30.5,19.0,30.44,East,82,0.0,0.0,65,0.00,,,0.00,TxWx,2013-03-21 02:56:00,
2013-03-20 23:01:00,30.1,19.0,30.44,East,82,0.0,0.0,67,0.00,,,0.00,TxWx,2013-03-21 03:01:00,
2013-03-20 23:07:00,29.4,20.0,30.44,East,82,0.6,0.6,72,0.00,,,0.00,TxWx,2013-03-21 03:07:00,
2013-03-20 23:12:00,29.0,21.0,30.44,East,82,0.3,0.3,75,0.00,,,0.00,TxWx,2013-03-21 03:12:00,
2013-03-20 23:17:00,28.8,21.0,30.44,East,82,0.0,0.0,76,0.00,,,0.00,TxWx,2013-03-21 03:17:00,
2013-03-20 23:22:00,28.7,21.0,30.44,East,82,0.0,0.0,75,0.00,,,0.00,TxWx,2013-03-21 03:22:00,
2013-03-20 23:27:00,28.5,22.0,30.44,East,82,0.0,0.0,77,0.00,,,0.00,TxWx,2013-03-21 03:27:00,
2013-03-20 23:32:00,28.5,22.0,30.44,East,82,0.0,0.0,78,0.00,,,0.00,TxWx,2013-03-21 03:32:00,
2013-03-20 23:37:00,28.5,22.0,30.44,East,82,0.0,0.0,79,0.00,,,0.00,TxWx,2013-03-21 03:37:00,
2013-03-20 23:42:00,28.7,22.0,30.45,East,82,0.0,0.0,78,0.00,,,0.00,TxWx,2013-03-21 03:42:00,
2013-03-20 23:47:00,28.8,22.0,30.44,East,83,0.9,1.2,77,0.00,,,0.00,TxWx,2013-03-21 03:47:00,
2013-03-20 23:53:00,29.0,22.0,30.45,East,83,0.0,0.0,77,0.00,,,0.00,TxWx,2013-03-21 03:53:00,
2013-03-20 23:58:00,29.1,22.0,30.45,East,82,0.0,0.0,77,0.00,,,0.00,TxWx,2013-03-21 03:58:00,